Year,Month,Day,Hour,Minute,Value (Times are PST for temperature in C)
2017,08,05,00,00,19.80
2017,08,05,00,01,19.80
2017,08,05,00,02,19.70
2017,08,05,00,03,19.70
2017,08,05,00,04,19.70
2017,08,05,00,05,19.70
2017,08,05,00,06,19.60
2017,08,05,00,07,19.60
2017,08,05,00,08,19.60
2017,08,05,00,09,19.50
2017,08,05,00,10,19.50
2017,08,05,00,11,19.40
2017,08,05,00,12,19.40
2017,08,05,00,13,19.40
2017,08,05,00,14,19.40
2017,08,05,00,15,19.40
2017,08,05,00,16,19.30
2017,08,05,00,17,19.30
2017,08,05,00,18,19.30
2017,08,05,00,19,19.40
2017,08,05,00,20,19.40
2017,08,05,00,21,19.40
2017,08,05,00,22,19.30
2017,08,05,00,23,19.30
2017,08,05,00,24,19.30
2017,08,05,00,25,19.30
2017,08,05,00,26,19.30
2017,08,05,00,27,19.30
2017,08,05,00,28,19.30
2017,08,05,00,29,19.30
2017,08,05,00,30,19.30
2017,08,05,00,31,19.30
2017,08,05,00,32,19.20
2017,08,05,00,33,19.20
2017,08,05,00,34,19.20
2017,08,05,00,35,19.10
2017,08,05,00,36,19.10
2017,08,05,00,37,19.10
2017,08,05,00,38,19.00
2017,08,05,00,39,19.00
2017,08,05,00,40,18.90
2017,08,05,00,41,18.90
2017,08,05,00,42,18.80
2017,08,05,00,43,18.80
2017,08,05,00,44,18.70
2017,08,05,00,45,18.70
2017,08,05,00,46,18.70
2017,08,05,00,47,18.60
2017,08,05,00,48,18.60
2017,08,05,00,49,18.50
2017,08,05,00,50,18.50
2017,08,05,00,51,18.40
2017,08,05,00,52,18.40
2017,08,05,00,53,18.30
2017,08,05,00,54,18.30
2017,08,05,00,55,18.30
2017,08,05,00,56,18.30
2017,08,05,00,57,18.20
2017,08,05,00,58,18.20
2017,08,05,00,59,18.20
2017,08,05,01,00,18.20
2017,08,05,01,01,18.10
2017,08,05,01,02,18.10
2017,08,05,01,03,18.10
2017,08,05,01,04,18.10
2017,08,05,01,05,18.10
2017,08,05,01,06,18.00
2017,08,05,01,07,18.00
2017,08,05,01,08,18.00
2017,08,05,01,09,18.00
2017,08,05,01,10,18.00
2017,08,05,01,11,17.90
2017,08,05,01,12,17.90
2017,08,05,01,13,17.90
2017,08,05,01,14,17.90
2017,08,05,01,15,17.90
2017,08,05,01,16,17.90
2017,08,05,01,17,17.80
2017,08,05,01,18,17.80
2017,08,05,01,19,17.80
2017,08,05,01,20,17.80
2017,08,05,01,21,17.80
2017,08,05,01,22,17.80
2017,08,05,01,23,17.80
2017,08,05,01,24,17.80
2017,08,05,01,25,17.70
2017,08,05,01,26,17.70
2017,08,05,01,27,17.70
2017,08,05,01,28,17.70
2017,08,05,01,29,17.70
2017,08,05,01,30,17.70
2017,08,05,01,31,17.70
2017,08,05,01,32,17.70
2017,08,05,01,33,17.70
2017,08,05,01,34,17.70
2017,08,05,01,35,17.70
2017,08,05,01,36,17.70
2017,08,05,01,37,17.70
2017,08,05,01,38,17.70
2017,08,05,01,39,17.70
2017,08,05,01,40,17.60
2017,08,05,01,41,17.60
2017,08,05,01,42,17.60
2017,08,05,01,43,17.60
2017,08,05,01,44,17.50
2017,08,05,01,45,17.50
2017,08,05,01,46,17.50
2017,08,05,01,47,17.50
2017,08,05,01,48,17.50
2017,08,05,01,49,17.40
2017,08,05,01,50,17.40
2017,08,05,01,51,17.40
2017,08,05,01,52,17.40
2017,08,05,01,53,17.40
2017,08,05,01,54,17.40
2017,08,05,01,55,17.40
2017,08,05,01,56,17.40
2017,08,05,01,57,17.40
2017,08,05,01,58,17.40
2017,08,05,01,59,17.40
2017,08,05,02,00,17.40
2017,08,05,02,01,17.40
2017,08,05,02,02,17.40
2017,08,05,02,03,17.30
2017,08,05,02,04,17.30
2017,08,05,02,05,17.30
2017,08,05,02,06,17.30
2017,08,05,02,07,17.30
2017,08,05,02,08,17.20
2017,08,05,02,09,17.20
2017,08,05,02,10,17.20
2017,08,05,02,11,17.20
2017,08,05,02,12,17.10
2017,08,05,02,13,17.10
2017,08,05,02,14,17.10
2017,08,05,02,15,17.10
2017,08,05,02,16,17.10
2017,08,05,02,17,17.10
2017,08,05,02,18,17.10
2017,08,05,02,19,17.10
2017,08,05,02,20,17.10
2017,08,05,02,21,17.10
2017,08,05,02,22,17.00
2017,08,05,02,23,17.00
2017,08,05,02,24,17.00
2017,08,05,02,25,17.00
2017,08,05,02,26,16.90
2017,08,05,02,27,16.90
2017,08,05,02,28,16.90
2017,08,05,02,29,16.90
2017,08,05,02,30,16.90
2017,08,05,02,31,16.90
2017,08,05,02,32,16.90
2017,08,05,02,33,16.80
2017,08,05,02,34,16.80
2017,08,05,02,35,16.80
2017,08,05,02,36,16.80
2017,08,05,02,37,16.80
2017,08,05,02,38,16.80
2017,08,05,02,39,16.80
2017,08,05,02,40,16.80
2017,08,05,02,41,16.80
2017,08,05,02,42,16.80
2017,08,05,02,43,16.80
2017,08,05,02,44,16.80
2017,08,05,02,45,16.80
2017,08,05,02,46,16.80
2017,08,05,02,47,16.80
2017,08,05,02,48,16.80
2017,08,05,02,49,16.70
2017,08,05,02,50,16.70
2017,08,05,02,51,16.70
2017,08,05,02,52,16.70
2017,08,05,02,53,16.70
2017,08,05,02,54,16.70
2017,08,05,02,55,16.80
2017,08,05,02,56,16.80
2017,08,05,02,57,16.80
2017,08,05,02,58,16.80
2017,08,05,02,59,16.80
2017,08,05,03,00,16.80
2017,08,05,03,01,16.80
2017,08,05,03,02,16.80
2017,08,05,03,03,16.80
2017,08,05,03,04,16.70
2017,08,05,03,05,16.70
2017,08,05,03,06,16.70
2017,08,05,03,07,16.70
2017,08,05,03,08,16.70
2017,08,05,03,09,16.70
2017,08,05,03,10,16.60
2017,08,05,03,11,16.60
2017,08,05,03,12,16.60
2017,08,05,03,13,16.60
2017,08,05,03,14,16.60
2017,08,05,03,15,16.60
2017,08,05,03,16,16.60
2017,08,05,03,17,16.60
2017,08,05,03,18,16.60
2017,08,05,03,19,16.60
2017,08,05,03,20,16.50
2017,08,05,03,21,16.50
2017,08,05,03,22,16.50
2017,08,05,03,23,16.50
2017,08,05,03,24,16.40
2017,08,05,03,25,16.40
2017,08,05,03,26,16.40
2017,08,05,03,27,16.30
2017,08,05,03,28,16.30
2017,08,05,03,29,16.30
2017,08,05,03,30,16.30
2017,08,05,03,31,16.30
2017,08,05,03,32,16.30
2017,08,05,03,33,16.30
2017,08,05,03,34,16.30
2017,08,05,03,35,16.30
2017,08,05,03,36,16.30
2017,08,05,03,37,16.30
2017,08,05,03,38,16.30
2017,08,05,03,39,16.30
2017,08,05,03,40,16.30
2017,08,05,03,41,16.30
2017,08,05,03,42,16.30
2017,08,05,03,43,16.30
2017,08,05,03,44,16.20
2017,08,05,03,45,16.20
2017,08,05,03,46,16.20
2017,08,05,03,47,16.20
2017,08,05,03,48,16.20
2017,08,05,03,49,16.20
2017,08,05,03,50,16.20
2017,08,05,03,51,16.20
2017,08,05,03,52,16.20
2017,08,05,03,53,16.20
2017,08,05,03,54,16.20
2017,08,05,03,55,16.20
2017,08,05,03,56,16.20
2017,08,05,03,57,16.10
2017,08,05,03,58,16.10
2017,08,05,03,59,16.10
2017,08,05,04,00,16.10
2017,08,05,04,01,16.10
2017,08,05,04,02,16.10
2017,08,05,04,03,16.10
2017,08,05,04,04,16.10
2017,08,05,04,05,16.00
2017,08,05,04,06,16.00
2017,08,05,04,07,15.90
2017,08,05,04,08,15.90
2017,08,05,04,09,15.90
2017,08,05,04,10,15.90
2017,08,05,04,11,15.90
2017,08,05,04,12,15.90
2017,08,05,04,13,15.90
2017,08,05,04,14,15.80
2017,08,05,04,15,15.80
2017,08,05,04,16,15.80
2017,08,05,04,17,15.80
2017,08,05,04,18,15.80
2017,08,05,04,19,15.80
2017,08,05,04,20,15.80
2017,08,05,04,21,15.80
2017,08,05,04,22,15.80
2017,08,05,04,23,15.80
2017,08,05,04,24,15.70
2017,08,05,04,25,15.70
2017,08,05,04,26,15.70
2017,08,05,04,27,15.70
2017,08,05,04,28,15.60
2017,08,05,04,29,15.60
2017,08,05,04,30,15.60
2017,08,05,04,31,15.60
2017,08,05,04,32,15.50
2017,08,05,04,33,15.50
2017,08,05,04,34,15.50
2017,08,05,04,35,15.50
2017,08,05,04,36,15.50
2017,08,05,04,37,15.50
2017,08,05,04,38,15.50
2017,08,05,04,39,15.50
2017,08,05,04,40,15.50
2017,08,05,04,41,15.40
2017,08,05,04,42,15.40
2017,08,05,04,43,15.40
2017,08,05,04,44,15.40
2017,08,05,04,45,15.40
2017,08,05,04,46,15.40
2017,08,05,04,47,15.40
2017,08,05,04,48,15.30
2017,08,05,04,49,15.30
2017,08,05,04,50,15.30
2017,08,05,04,51,15.30
2017,08,05,04,52,15.30
2017,08,05,04,53,15.30
2017,08,05,04,54,15.30
2017,08,05,04,55,15.30
2017,08,05,04,56,15.30
2017,08,05,04,57,15.20
2017,08,05,04,58,15.20
2017,08,05,04,59,15.20
2017,08,05,05,00,15.20
2017,08,05,05,01,15.20
2017,08,05,05,02,15.20
2017,08,05,05,03,15.20
2017,08,05,05,04,15.20
2017,08,05,05,05,15.20
2017,08,05,05,06,15.20
2017,08,05,05,07,15.20
2017,08,05,05,08,15.20
2017,08,05,05,09,15.20
2017,08,05,05,10,15.20
2017,08,05,05,11,15.10
2017,08,05,05,12,15.10
2017,08,05,05,13,15.10
2017,08,05,05,14,15.10
2017,08,05,05,15,15.10
2017,08,05,05,16,15.10
2017,08,05,05,17,15.00
2017,08,05,05,18,15.00
2017,08,05,05,19,15.00
2017,08,05,05,20,15.00
2017,08,05,05,21,15.00
2017,08,05,05,22,14.90
2017,08,05,05,23,14.90
2017,08,05,05,24,14.90
2017,08,05,05,25,14.90
2017,08,05,05,26,14.90
2017,08,05,05,27,14.90
2017,08,05,05,28,14.80
2017,08,05,05,29,14.80
2017,08,05,05,30,14.80
2017,08,05,05,31,14.80
2017,08,05,05,32,14.90
2017,08,05,05,33,14.90
2017,08,05,05,34,14.90
2017,08,05,05,35,14.80
2017,08,05,05,36,14.80
2017,08,05,05,37,14.80
2017,08,05,05,38,14.80
2017,08,05,05,39,14.80
2017,08,05,05,40,14.80
2017,08,05,05,41,14.80
2017,08,05,05,42,14.80
2017,08,05,05,43,14.80
2017,08,05,05,44,14.80
2017,08,05,05,45,14.70
2017,08,05,05,46,14.70
2017,08,05,05,47,14.70
2017,08,05,05,48,14.70
2017,08,05,05,49,14.70
2017,08,05,05,50,14.70
2017,08,05,05,51,14.70
2017,08,05,05,52,14.70
2017,08,05,05,53,14.70
2017,08,05,05,54,14.60
2017,08,05,05,55,14.60
2017,08,05,05,56,14.60
2017,08,05,05,57,14.60
2017,08,05,05,58,14.60
2017,08,05,05,59,14.60
2017,08,05,06,00,14.60
2017,08,05,06,01,14.60
2017,08,05,06,02,14.60
2017,08,05,06,03,14.60
2017,08,05,06,04,14.60
2017,08,05,06,05,14.50
2017,08,05,06,06,14.50
2017,08,05,06,07,14.50
2017,08,05,06,08,14.40
2017,08,05,06,09,14.40
2017,08,05,06,10,14.40
2017,08,05,06,11,14.40
2017,08,05,06,12,14.40
2017,08,05,06,13,14.40
2017,08,05,06,14,14.40
2017,08,05,06,15,14.40
2017,08,05,06,16,14.40
2017,08,05,06,17,14.40
2017,08,05,06,18,14.40
2017,08,05,06,19,14.40
2017,08,05,06,20,14.40
2017,08,05,06,21,14.40
2017,08,05,06,22,14.40
2017,08,05,06,23,14.40
2017,08,05,06,24,14.40
2017,08,05,06,25,14.40
2017,08,05,06,26,14.40
2017,08,05,06,27,14.40
2017,08,05,06,28,14.40
2017,08,05,06,29,14.40
2017,08,05,06,30,14.40
2017,08,05,06,31,14.40
2017,08,05,06,32,14.40
2017,08,05,06,33,14.40
2017,08,05,06,34,14.40
2017,08,05,06,35,14.40
2017,08,05,06,36,14.40
2017,08,05,06,37,14.40
2017,08,05,06,38,14.40
2017,08,05,06,39,14.40
2017,08,05,06,40,14.30
2017,08,05,06,41,14.30
2017,08,05,06,42,14.30
2017,08,05,06,43,14.30
2017,08,05,06,44,14.40
2017,08,05,06,45,14.40
2017,08,05,06,46,14.40
2017,08,05,06,47,14.40
2017,08,05,06,48,14.40
2017,08,05,06,49,14.40
2017,08,05,06,50,14.40
2017,08,05,06,51,14.40
2017,08,05,06,52,14.40
2017,08,05,06,53,14.40
2017,08,05,06,54,14.40
2017,08,05,06,55,14.40
2017,08,05,06,56,14.40
2017,08,05,06,57,14.40
2017,08,05,06,58,14.50
2017,08,05,06,59,14.40
2017,08,05,07,00,14.40
2017,08,05,07,01,14.40
2017,08,05,07,02,14.40
2017,08,05,07,03,14.40
2017,08,05,07,04,14.40
2017,08,05,07,05,14.40
2017,08,05,07,06,14.40
2017,08,05,07,07,14.50
2017,08,05,07,08,14.50
2017,08,05,07,09,14.50
2017,08,05,07,10,14.50
2017,08,05,07,11,14.50
2017,08,05,07,12,14.60
2017,08,05,07,13,14.60
2017,08,05,07,14,14.60
2017,08,05,07,15,14.60
2017,08,05,07,16,14.60
2017,08,05,07,17,14.60
2017,08,05,07,18,14.70
2017,08,05,07,19,14.70
2017,08,05,07,20,14.70
2017,08,05,07,21,14.70
2017,08,05,07,22,14.80
2017,08,05,07,23,14.80
2017,08,05,07,24,14.80
2017,08,05,07,25,14.80
2017,08,05,07,26,14.90
2017,08,05,07,27,14.90
2017,08,05,07,28,14.90
2017,08,05,07,29,15.00
2017,08,05,07,30,15.00
2017,08,05,07,31,15.10
2017,08,05,07,32,15.10
2017,08,05,07,33,15.20
2017,08,05,07,34,15.20
2017,08,05,07,35,15.20
2017,08,05,07,36,15.30
2017,08,05,07,37,15.30
2017,08,05,07,38,15.30
2017,08,05,07,39,15.40
2017,08,05,07,40,15.40
2017,08,05,07,41,15.40
2017,08,05,07,42,15.50
2017,08,05,07,43,15.50
2017,08,05,07,44,15.60
2017,08,05,07,45,15.60
2017,08,05,07,46,15.70
2017,08,05,07,47,15.70
2017,08,05,07,48,15.80
2017,08,05,07,49,15.80
2017,08,05,07,50,15.90
2017,08,05,07,51,16.00
2017,08,05,07,52,16.00
2017,08,05,07,53,16.10
2017,08,05,07,54,16.10
2017,08,05,07,55,16.20
2017,08,05,07,56,16.30
2017,08,05,07,57,16.40
2017,08,05,07,58,16.50
2017,08,05,07,59,16.60
2017,08,05,08,00,16.70
2017,08,05,08,01,16.70
2017,08,05,08,02,16.70
2017,08,05,08,03,16.80
2017,08,05,08,04,16.80
2017,08,05,08,05,16.90
2017,08,05,08,06,16.90
2017,08,05,08,07,17.00
2017,08,05,08,08,17.10
2017,08,05,08,09,17.10
2017,08,05,08,10,17.20
2017,08,05,08,11,17.20
2017,08,05,08,12,17.30
2017,08,05,08,13,17.30
2017,08,05,08,14,17.40
2017,08,05,08,15,17.40
2017,08,05,08,16,17.50
2017,08,05,08,17,17.50
2017,08,05,08,18,17.60
2017,08,05,08,19,17.60
2017,08,05,08,20,17.60
2017,08,05,08,21,17.70
2017,08,05,08,22,17.70
2017,08,05,08,23,17.70
2017,08,05,08,24,17.80
2017,08,05,08,25,17.80
2017,08,05,08,26,17.80
2017,08,05,08,27,17.80
2017,08,05,08,28,17.90
2017,08,05,08,29,17.90
2017,08,05,08,30,17.90
2017,08,05,08,31,17.90
2017,08,05,08,32,18.00
2017,08,05,08,33,18.00
2017,08,05,08,34,18.00
2017,08,05,08,35,18.00
2017,08,05,08,36,18.00
2017,08,05,08,37,18.00
2017,08,05,08,38,18.00
2017,08,05,08,39,18.00
2017,08,05,08,40,18.00
2017,08,05,08,41,18.00
2017,08,05,08,42,18.00
2017,08,05,08,43,18.00
2017,08,05,08,44,18.00
2017,08,05,08,45,18.00
2017,08,05,08,46,18.00
2017,08,05,08,47,18.00
2017,08,05,08,48,18.00
2017,08,05,08,49,18.00
2017,08,05,08,50,18.10
2017,08,05,08,51,18.10
2017,08,05,08,52,18.10
2017,08,05,08,53,18.10
2017,08,05,08,54,18.10
2017,08,05,08,55,18.10
2017,08,05,08,56,18.20
2017,08,05,08,57,18.20
2017,08,05,08,58,18.20
2017,08,05,08,59,18.20
2017,08,05,09,00,18.30
2017,08,05,09,01,18.30
2017,08,05,09,02,18.30
2017,08,05,09,03,18.30
2017,08,05,09,04,18.40
2017,08,05,09,05,18.40
2017,08,05,09,06,18.40
2017,08,05,09,07,18.50
2017,08,05,09,08,18.50
2017,08,05,09,09,18.60
2017,08,05,09,10,18.60
2017,08,05,09,11,18.60
2017,08,05,09,12,18.70
2017,08,05,09,13,18.70
2017,08,05,09,14,18.70
2017,08,05,09,15,18.80
2017,08,05,09,16,18.80
2017,08,05,09,17,18.90
2017,08,05,09,18,18.90
2017,08,05,09,19,18.90
2017,08,05,09,20,19.00
2017,08,05,09,21,19.00
2017,08,05,09,22,19.10
2017,08,05,09,23,19.10
2017,08,05,09,24,19.10
2017,08,05,09,25,19.20
2017,08,05,09,26,19.20
2017,08,05,09,27,19.30
2017,08,05,09,28,19.30
2017,08,05,09,29,19.30
2017,08,05,09,30,19.40
2017,08,05,09,31,19.40
2017,08,05,09,32,19.50
2017,08,05,09,33,19.50
2017,08,05,09,34,19.60
2017,08,05,09,35,19.60
2017,08,05,09,36,19.70
2017,08,05,09,37,19.70
2017,08,05,09,38,19.70
2017,08,05,09,39,19.80
2017,08,05,09,40,19.80
2017,08,05,09,41,19.80
2017,08,05,09,42,19.80
2017,08,05,09,43,19.80
2017,08,05,09,44,19.80
2017,08,05,09,45,19.80
2017,08,05,09,46,19.80
2017,08,05,09,47,19.80
2017,08,05,09,48,19.90
2017,08,05,09,49,19.90
2017,08,05,09,50,19.90
2017,08,05,09,51,19.90
2017,08,05,09,52,20.00
2017,08,05,09,53,20.00
2017,08,05,09,54,20.10
2017,08,05,09,55,20.10
2017,08,05,09,56,20.10
2017,08,05,09,57,20.10
2017,08,05,09,58,20.20
2017,08,05,09,59,20.20
2017,08,05,10,00,20.20
2017,08,05,10,01,20.30
2017,08,05,10,02,20.30
2017,08,05,10,03,20.40
2017,08,05,10,04,20.40
2017,08,05,10,05,20.40
2017,08,05,10,06,20.40
2017,08,05,10,07,20.40
2017,08,05,10,08,20.40
2017,08,05,10,09,20.50
2017,08,05,10,10,20.50
2017,08,05,10,11,20.50
2017,08,05,10,12,20.50
2017,08,05,10,13,20.60
2017,08,05,10,14,20.60
2017,08,05,10,15,20.60
2017,08,05,10,16,20.70
2017,08,05,10,17,20.70
2017,08,05,10,18,20.70
2017,08,05,10,19,20.70
2017,08,05,10,20,20.70
2017,08,05,10,21,20.70
2017,08,05,10,22,20.70
2017,08,05,10,23,20.70
2017,08,05,10,24,20.70
2017,08,05,10,25,20.80
2017,08,05,10,26,20.80
2017,08,05,10,27,20.90
2017,08,05,10,28,20.90
2017,08,05,10,29,21.00
2017,08,05,10,30,21.00
2017,08,05,10,31,21.10
2017,08,05,10,32,21.10
2017,08,05,10,33,21.10
2017,08,05,10,34,21.10
2017,08,05,10,35,21.10
2017,08,05,10,36,21.10
2017,08,05,10,37,21.10
2017,08,05,10,38,21.10
2017,08,05,10,39,21.10
2017,08,05,10,40,21.20
2017,08,05,10,41,21.20
2017,08,05,10,42,21.20
2017,08,05,10,43,21.30
2017,08,05,10,44,21.30
2017,08,05,10,45,21.30
2017,08,05,10,46,21.30
2017,08,05,10,47,21.30
2017,08,05,10,48,21.30
2017,08,05,10,49,21.30
2017,08,05,10,50,21.30
2017,08,05,10,51,21.30
2017,08,05,10,52,21.30
2017,08,05,10,53,21.30
2017,08,05,10,54,21.30
2017,08,05,10,55,21.40
2017,08,05,10,56,21.40
2017,08,05,10,57,21.50
2017,08,05,10,58,21.60
2017,08,05,10,59,21.60
2017,08,05,11,00,21.60
2017,08,05,11,01,21.60
2017,08,05,11,02,21.60
2017,08,05,11,03,21.60
2017,08,05,11,04,21.70
2017,08,05,11,05,21.70
2017,08,05,11,06,21.70
2017,08,05,11,07,21.70
2017,08,05,11,08,21.80
2017,08,05,11,09,21.80
2017,08,05,11,10,21.80
2017,08,05,11,11,21.80
2017,08,05,11,12,21.80
2017,08,05,11,13,21.80
2017,08,05,11,14,21.80
2017,08,05,11,15,21.80
2017,08,05,11,16,21.80
2017,08,05,11,17,21.80
2017,08,05,11,18,21.70
2017,08,05,11,19,21.60
2017,08,05,11,20,21.60
2017,08,05,11,21,21.60
2017,08,05,11,22,21.60
2017,08,05,11,23,21.60
2017,08,05,11,24,21.60
2017,08,05,11,25,21.60
2017,08,05,11,26,21.60
2017,08,05,11,27,21.60
2017,08,05,11,28,21.60
2017,08,05,11,29,21.60
2017,08,05,11,30,21.60
2017,08,05,11,31,21.70
2017,08,05,11,32,21.70
2017,08,05,11,33,21.80
2017,08,05,11,34,21.80
2017,08,05,11,35,21.80
2017,08,05,11,36,21.80
2017,08,05,11,37,21.80
2017,08,05,11,38,21.80
2017,08,05,11,39,21.80
2017,08,05,11,40,21.80
2017,08,05,11,41,21.80
2017,08,05,11,42,21.80
2017,08,05,11,43,21.80
2017,08,05,11,44,21.80
2017,08,05,11,45,21.90
2017,08,05,11,46,21.90
2017,08,05,11,47,21.90
2017,08,05,11,48,21.90
2017,08,05,11,49,21.90
2017,08,05,11,50,21.90
2017,08,05,11,51,21.90
2017,08,05,11,52,21.90
2017,08,05,11,53,21.90
2017,08,05,11,54,21.90
2017,08,05,11,55,21.90
2017,08,05,11,56,21.90
2017,08,05,11,57,21.90
2017,08,05,11,58,21.90
2017,08,05,11,59,21.90
2017,08,05,12,00,21.90
2017,08,05,12,01,21.90
2017,08,05,12,02,21.90
2017,08,05,12,03,22.00
2017,08,05,12,04,22.00
2017,08,05,12,05,22.00
2017,08,05,12,06,22.10
2017,08,05,12,07,22.10
2017,08,05,12,08,22.10
2017,08,05,12,09,22.20
2017,08,05,12,10,22.30
2017,08,05,12,11,22.30
2017,08,05,12,12,22.40
2017,08,05,12,13,22.50
2017,08,05,12,14,22.60
2017,08,05,12,15,22.60
2017,08,05,12,16,22.60
2017,08,05,12,17,22.60
2017,08,05,12,18,22.60
2017,08,05,12,19,22.60
2017,08,05,12,20,22.60
2017,08,05,12,21,22.60
2017,08,05,12,22,22.60
2017,08,05,12,23,22.60
2017,08,05,12,24,22.60
2017,08,05,12,25,22.60
2017,08,05,12,26,22.50
2017,08,05,12,27,22.40
2017,08,05,12,28,22.40
2017,08,05,12,29,22.30
2017,08,05,12,30,22.30
2017,08,05,12,31,22.20
2017,08,05,12,32,22.20
2017,08,05,12,33,22.20
2017,08,05,12,34,22.20
2017,08,05,12,35,22.20
2017,08,05,12,36,22.20
2017,08,05,12,37,22.30
2017,08,05,12,38,22.30
2017,08,05,12,39,22.30
2017,08,05,12,40,22.30
2017,08,05,12,41,22.30
2017,08,05,12,42,22.30
2017,08,05,12,43,22.30
2017,08,05,12,44,22.30
2017,08,05,12,45,22.40
2017,08,05,12,46,22.40
2017,08,05,12,47,22.40
2017,08,05,12,48,22.40
2017,08,05,12,49,22.30
2017,08,05,12,50,22.30
2017,08,05,12,51,22.30
2017,08,05,12,52,22.30
2017,08,05,12,53,22.20
2017,08,05,12,54,22.20
2017,08,05,12,55,22.30
2017,08,05,12,56,22.30
2017,08,05,12,57,22.30
2017,08,05,12,58,22.30
2017,08,05,12,59,22.30
2017,08,05,13,00,22.20
2017,08,05,13,01,22.20
2017,08,05,13,02,22.20
2017,08,05,13,03,22.20
2017,08,05,13,04,22.20
2017,08,05,13,05,22.20
2017,08,05,13,06,22.30
2017,08,05,13,07,22.30
2017,08,05,13,08,22.40
2017,08,05,13,09,22.40
2017,08,05,13,10,22.40
2017,08,05,13,11,22.40
2017,08,05,13,12,22.40
2017,08,05,13,13,22.40
2017,08,05,13,14,22.40
2017,08,05,13,15,22.40
2017,08,05,13,16,22.50
2017,08,05,13,17,22.50
2017,08,05,13,18,22.60
2017,08,05,13,19,22.60
2017,08,05,13,20,22.60
2017,08,05,13,21,22.60
2017,08,05,13,22,22.60
2017,08,05,13,23,22.60
2017,08,05,13,24,22.60
2017,08,05,13,25,22.60
2017,08,05,13,26,22.60
2017,08,05,13,27,22.60
2017,08,05,13,28,22.60
2017,08,05,13,29,22.60
2017,08,05,13,30,22.50
2017,08,05,13,31,22.50
2017,08,05,13,32,22.50
2017,08,05,13,33,22.50
2017,08,05,13,34,22.50
2017,08,05,13,35,22.50
2017,08,05,13,36,22.50
2017,08,05,13,37,22.50
2017,08,05,13,38,22.50
2017,08,05,13,39,22.50
2017,08,05,13,40,22.50
2017,08,05,13,41,22.50
2017,08,05,13,42,22.50
2017,08,05,13,43,22.50
2017,08,05,13,44,22.50
2017,08,05,13,45,22.40
2017,08,05,13,46,22.40
2017,08,05,13,47,22.50
2017,08,05,13,48,22.50
2017,08,05,13,49,22.50
2017,08,05,13,50,22.60
2017,08,05,13,51,22.60
2017,08,05,13,52,22.60
2017,08,05,13,53,22.60
2017,08,05,13,54,22.70
2017,08,05,13,55,22.70
2017,08,05,13,56,22.70
2017,08,05,13,57,22.70
2017,08,05,13,58,22.70
2017,08,05,13,59,22.70
2017,08,05,14,00,22.70
2017,08,05,14,01,22.70
2017,08,05,14,02,22.70
2017,08,05,14,03,22.70
2017,08,05,14,04,22.80
2017,08,05,14,05,22.80
2017,08,05,14,06,22.90
2017,08,05,14,07,22.90
2017,08,05,14,08,23.00
2017,08,05,14,09,23.10
2017,08,05,14,10,23.10
2017,08,05,14,11,23.20
2017,08,05,14,12,23.20
2017,08,05,14,13,23.20
2017,08,05,14,14,23.30
2017,08,05,14,15,23.30
2017,08,05,14,16,23.40
2017,08,05,14,17,23.40
2017,08,05,14,18,23.40
2017,08,05,14,19,23.40
2017,08,05,14,20,23.40
2017,08,05,14,21,23.40
2017,08,05,14,22,23.40
2017,08,05,14,23,23.50
2017,08,05,14,24,23.50
2017,08,05,14,25,23.60
2017,08,05,14,26,23.60
2017,08,05,14,27,23.60
2017,08,05,14,28,23.70
2017,08,05,14,29,23.70
2017,08,05,14,30,23.70
2017,08,05,14,31,23.70
2017,08,05,14,32,23.80
2017,08,05,14,33,23.80
2017,08,05,14,34,23.70
2017,08,05,14,35,23.70
2017,08,05,14,36,23.80
2017,08,05,14,37,23.80
2017,08,05,14,38,23.80
2017,08,05,14,39,23.80
2017,08,05,14,40,23.80
2017,08,05,14,41,23.80
2017,08,05,14,42,23.80
2017,08,05,14,43,23.80
2017,08,05,14,44,23.70
2017,08,05,14,45,23.70
2017,08,05,14,46,23.60
2017,08,05,14,47,23.60
2017,08,05,14,48,23.60
2017,08,05,14,49,23.60
2017,08,05,14,50,23.50
2017,08,05,14,51,23.50
2017,08,05,14,52,23.50
2017,08,05,14,53,23.60
2017,08,05,14,54,23.60
2017,08,05,14,55,23.60
2017,08,05,14,56,23.60
2017,08,05,14,57,23.70
2017,08,05,14,58,23.70
2017,08,05,14,59,23.70
2017,08,05,15,00,23.80
2017,08,05,15,01,23.80
2017,08,05,15,02,23.90
2017,08,05,15,03,23.90
2017,08,05,15,04,24.00
2017,08,05,15,05,24.10
2017,08,05,15,06,24.10
2017,08,05,15,07,24.20
2017,08,05,15,08,24.20
2017,08,05,15,09,24.30
2017,08,05,15,10,24.30
2017,08,05,15,11,24.30
2017,08,05,15,12,24.40
2017,08,05,15,13,24.40
2017,08,05,15,14,24.40
2017,08,05,15,15,24.40
2017,08,05,15,16,24.50
2017,08,05,15,17,24.50
2017,08,05,15,18,24.50
2017,08,05,15,19,24.50
2017,08,05,15,20,24.50
2017,08,05,15,21,24.40
2017,08,05,15,22,24.40
2017,08,05,15,23,24.40
2017,08,05,15,24,24.30
2017,08,05,15,25,24.30
2017,08,05,15,26,24.30
2017,08,05,15,27,24.30
2017,08,05,15,28,24.20
2017,08,05,15,29,24.20
2017,08,05,15,30,24.20
2017,08,05,15,31,24.20
2017,08,05,15,32,24.20
2017,08,05,15,33,24.10
2017,08,05,15,34,24.10
2017,08,05,15,35,24.10
2017,08,05,15,36,24.10
2017,08,05,15,37,24.10
2017,08,05,15,38,24.10
2017,08,05,15,39,24.10
2017,08,05,15,40,24.10
2017,08,05,15,41,24.10
2017,08,05,15,42,24.10
2017,08,05,15,43,24.10
2017,08,05,15,44,24.20
2017,08,05,15,45,24.20
2017,08,05,15,46,24.20
2017,08,05,15,47,24.20
2017,08,05,15,48,24.20
2017,08,05,15,49,24.20
2017,08,05,15,50,24.30
2017,08,05,15,51,24.20
2017,08,05,15,52,24.20
2017,08,05,15,53,24.20
2017,08,05,15,54,24.20
2017,08,05,15,55,24.20
2017,08,05,15,56,24.10
2017,08,05,15,57,24.10
2017,08,05,15,58,24.00
2017,08,05,15,59,24.00
2017,08,05,16,00,24.00
2017,08,05,16,01,24.00
2017,08,05,16,02,24.00
2017,08,05,16,03,24.00
2017,08,05,16,04,24.00
2017,08,05,16,05,24.10
2017,08,05,16,06,24.10
2017,08,05,16,07,24.10
2017,08,05,16,08,24.10
2017,08,05,16,09,24.20
2017,08,05,16,10,24.10
2017,08,05,16,11,24.10
2017,08,05,16,12,24.20
2017,08,05,16,13,24.20
2017,08,05,16,14,24.20
2017,08,05,16,15,24.20
2017,08,05,16,16,24.30
2017,08,05,16,17,24.30
2017,08,05,16,18,24.30
2017,08,05,16,19,24.30
2017,08,05,16,20,24.40
2017,08,05,16,21,24.40
2017,08,05,16,22,24.40
2017,08,05,16,23,24.40
2017,08,05,16,24,24.40
2017,08,05,16,25,24.50
2017,08,05,16,26,24.50
2017,08,05,16,27,24.60
2017,08,05,16,28,24.50
2017,08,05,16,29,24.50
2017,08,05,16,30,24.50
2017,08,05,16,31,24.50
2017,08,05,16,32,24.50
2017,08,05,16,33,24.40
2017,08,05,16,34,24.40
2017,08,05,16,35,24.40
2017,08,05,16,36,24.30
2017,08,05,16,37,24.30
2017,08,05,16,38,24.30
2017,08,05,16,39,24.30
2017,08,05,16,40,24.40
2017,08,05,16,41,24.40
2017,08,05,16,42,24.40
2017,08,05,16,43,24.40
2017,08,05,16,44,24.50
2017,08,05,16,45,24.50
2017,08,05,16,46,24.60
2017,08,05,16,47,24.60
2017,08,05,16,48,24.70
2017,08,05,16,49,24.70
2017,08,05,16,50,24.70
2017,08,05,16,51,24.70
2017,08,05,16,52,24.70
2017,08,05,16,53,24.70
2017,08,05,16,54,24.70
2017,08,05,16,55,24.80
2017,08,05,16,56,24.80
2017,08,05,16,57,24.80
2017,08,05,16,58,24.80
2017,08,05,16,59,24.70
2017,08,05,17,00,24.70
2017,08,05,17,01,24.70
2017,08,05,17,02,24.70
2017,08,05,17,03,24.70
2017,08,05,17,04,24.70
2017,08,05,17,05,24.70
2017,08,05,17,06,24.60
2017,08,05,17,07,24.60
2017,08,05,17,08,24.60
2017,08,05,17,09,24.50
2017,08,05,17,10,24.50
2017,08,05,17,11,24.40
2017,08,05,17,12,24.40
2017,08,05,17,13,24.40
2017,08,05,17,14,24.30
2017,08,05,17,15,24.30
2017,08,05,17,16,24.30
2017,08,05,17,17,24.30
2017,08,05,17,18,24.30
2017,08,05,17,19,24.20